Regional Weather Roundup
Issued by NWS

Home | Current Version | Previous Version | Graphics & Text | Print | Product List | Glossary On
Versions: 1 2 3 4 5 6 7 8 9 10 11 12 13 14 15 16 17 18 19 20 21 22 23 24 25 26 27 28 29 30 31 32 33 34 35 36 37 38 39 40 41 42 43 44 45 46 47 48 49 50
000
ASUS45 KCYS 271510
RWRWY

WYOMING REGIONAL WEATHER ROUNDUP
NATIONAL WEATHER SERVICE CHEYENNE WY
900 AM MDT WED MAY 27 2015

NOTE:  "FAIR" INDICATES FEW OR NO CLOUDS BELOW 12,000 FEET
WITH NO SIGNIFICANT WEATHER AND/OR OBSTRUCTIONS TO VISIBILITY.

WYZ001-271600-
YELLOWSTONE NATIONAL PARK

CITY           SKY/WX    TMP DP  RH WIND       PRES   REMARKS
LK YELLOWSTONE   N/A     41  37  86 VRB3      30.17S
W YELLOWSTONE  NOT AVBL

$$
WYZ002>013-054>058-071-098>099-271600-
NORTHERN WYOMING

CITY           SKY/WX    TMP DP  RH WIND       PRES   REMARKS
JACKSON        CLOUDY    45  43  93 MISG      30.13S
CODY           FAIR      55  46  71 E5        30.04R
GREYBULL         N/A     57  52  83 S5        30.01R
WORLAND        CLOUDY    56  52  86 SW5       30.01S
SHERIDAN       CLOUDY    56  49  77 W5        30.01R
BUFFALO        CLOUDY    55  49  80 NW9       30.02S
GILLETTE       PTSUNNY   58  51  78 S8        30.00R
HULETT         FAIR      63  48  59 S9        30.01S
NEWCASTLE      FAIR      59  46  63 SE10      30.03S

$$
WYZ014>020-022>026-101>103-271600-
CENTRAL WYOMING

CITY           SKY/WX    TMP DP  RH WIND       PRES   REMARKS
BIG PINEY      FAIR      49  40  71 CALM      30.17R
PINEDALE       FAIR      48  39  71 NW7       30.17R
DUBOIS         FAIR      52  36  54 N14       30.11S
LANDER         FAIR      56  44  64 CALM      30.05S
RIVERTON       FAIR      55  45  68 CALM      30.07R
CASPER         FAIR      57  48  72 SW13      30.06R
DOUGLAS        FAIR      60  49  66 CALM      30.04S

$$
WYZ021-027>030-104>119-271600-
SOUTHERN WYOMING

CITY           SKY/WX    TMP DP  RH WIND       PRES   REMARKS
EVANSTON       CLOUDY    47  40  76 CALM      30.17S
KEMMERER       FAIR      48  41  76 NW5       30.18S
FORT BRIDGER   SUNNY     54  43  66 W7        30.20R
ROCK SPRINGS   FAIR      51  42  71 W16       30.16R
DIXON          PTSUNNY   52  44  73 SW7       30.21R
RAWLINS        PTSUNNY   52  43  71 SW16      30.16R
SARATOGA       CLOUDY    46  43  87 MISG      30.20R
LARAMIE        CLOUDY    51  38  60 W13       30.15R
CHEYENNE       FAIR      62  43  49 W7        30.10S
TORRINGTON     FAIR      60  54  80 S7        30.04R
PINE BLUFFS    FAIR      61  52  72 E5        30.08S

$$


USA.gov is the U.S. government's official web portal to all federal, state and local government web resources and services.